Franklin, PA

3:00 AM EST on November 15, 2019 (GMT -0500)
Venango Regional

Weather History for KFKL - September, 2019

Change the Weather History Date:

Saturday, September 28, 2019

  Actual Average Record
Temperature  
Mean Temperature 70 °F -  
Max Temperature 80 °F 68 °F 87 °F (1959)
Min Temperature 62 °F 45 °F 29 °F (1947)
Cooling Degree Days 5    
Growing Degree Days 20 (Base 50)    
Moisture  
Dew Point 61 °F    
Average Humidity 78    
Maximum Humidity 100    
Minimum Humidity 60    
Precipitation  
Precipitation 0.00 in - - ()
Sea Level Pressure  
Sea Level Pressure 30.09 in    
Wind  
Wind Speed 8 mph (WSW)    
Max Wind Speed 14 mph    
Max Gust Speed 17 mph    
Visibility 10 miles    
Events Rain    
Averages and records for this station are not official NWS values.
T = Trace of Precipitation, MM = Missing Value Source: NWS Daily Summary

Daily Weather History Graph

Daily Weather History Graph

Search for Another Location

Airport or City:

Astronomy

Sep. 28, 2019 Rise Set
Actual Time 7:12 AM EDT 7:06 PM EDT
Civil Twilight 6:45 AM EDT 7:34 PM EDT
Nautical Twilight 6:13 AM EDT 8:06 PM EDT
Astronomical Twilight 5:40 AM EDT 8:38 PM EDT
Moon 6:46 AM EDT (9/28) 7:32 PM EDT (9/28)
Length of Visible Light 12h 49m
Length of Day
11h 53m
Waning Crescent, 0% of the Moon is Illuminated
Sep 28
Waning Crescent
Sep 28
New
Oct 5
First Quarter
Oct 13
Full
Oct 21
Last Quarter

Hourly Weather History & Observations

Time (EDT) Temp. Dew Point Humidity Pressure Visibility Wind Dir Wind Speed Gust Speed Precip Events Conditions
12:56 AM 66.0 °F 55.0 °F 68% 29.94 in 10.0 mi South 13.8 mph - N/A   Clear
1:56 AM 64.9 °F 55.0 °F 70% 29.94 in 10.0 mi South 12.7 mph - N/A   Clear
2:56 AM 64.0 °F 55.0 °F 73% 29.96 in 10.0 mi South 9.2 mph - N/A   Clear
3:56 AM 64.9 °F 55.9 °F 73% 29.95 in 10.0 mi South 12.7 mph - N/A   Clear
4:56 AM 64.9 °F 57.0 °F 75% 29.96 in 10.0 mi SSW 6.9 mph - N/A   Clear
5:56 AM 66.9 °F 57.9 °F 73% 29.99 in 10.0 mi Variable 5.8 mph 17.3 mph N/A   Overcast
6:56 AM 64.0 °F 57.0 °F 78% 30.01 in 10.0 mi SSW 4.6 mph - N/A   Partly Cloudy
7:56 AM 64.0 °F 57.9 °F 80% 30.01 in 10.0 mi South 9.2 mph - N/A   Clear
8:56 AM 66.9 °F 60.1 °F 79% 30.03 in 10.0 mi SW 6.9 mph - N/A   Clear
9:56 AM 69.1 °F 62.1 °F 78% 30.02 in 10.0 mi SSW 9.2 mph - 0.00 in   Partly Cloudy
10:56 AM 73.9 °F 64.0 °F 71% 30.04 in 10.0 mi West 6.9 mph - 0.00 in   Partly Cloudy
11:56 AM 77.0 °F 64.0 °F 64% 30.06 in 10.0 mi WSW 10.4 mph 17.3 mph N/A   Clear
12:56 PM 78.1 °F 63.0 °F 60% 30.06 in 10.0 mi WNW 10.4 mph - N/A   Partly Cloudy
1:56 PM 78.1 °F 63.0 °F 60% 30.06 in 10.0 mi West 10.4 mph - N/A   Partly Cloudy
2:56 PM 78.1 °F 63.0 °F 60% 30.07 in 10.0 mi WNW 6.9 mph - N/A   Mostly Cloudy
3:56 PM 78.1 °F 63.0 °F 60% 30.06 in 10.0 mi West 4.6 mph - N/A   Partly Cloudy
4:56 PM 75.9 °F 63.0 °F 64% 30.10 in 10.0 mi NW 6.9 mph - N/A   Mostly Cloudy
5:56 PM 73.0 °F 63.0 °F 71% 30.12 in 10.0 mi Variable 4.6 mph - 0.00 in Rain Light Rain
6:56 PM 69.1 °F 63.0 °F 81% 30.14 in 10.0 mi Variable 4.6 mph - 0.00 in Rain Light Rain
7:56 PM 68.0 °F 62.1 °F 81% 30.16 in 10.0 mi Calm Calm - 0.00 in   Overcast
8:56 PM 66.0 °F 63.0 °F 90% 30.18 in 10.0 mi Variable 4.6 mph - N/A   Overcast
9:37 PM 64.4 °F 62.6 °F 94% 30.21 in 10.0 mi Calm Calm - N/A   Mostly Cloudy
9:56 PM 64.0 °F 63.0 °F 96% 30.20 in 10.0 mi Calm Calm - N/A   Overcast
10:54 PM 62.6 °F 62.6 °F 100% 30.23 in 10.0 mi NNE 3.5 mph - N/A   Scattered Clouds
10:56 PM 63.0 °F 62.1 °F 97% 30.21 in 10.0 mi North 3.5 mph - N/A   Partly Cloudy
11:13 PM 62.6 °F 62.6 °F 100% 30.24 in 10.0 mi Calm Calm - N/A   Mostly Cloudy
11:40 PM 64.4 °F 62.6 °F 94% 30.24 in 10.0 mi Variable 4.6 mph - N/A   Overcast
11:56 PM 64.0 °F 62.1 °F 93% 30.22 in 10.0 mi North 4.6 mph - N/A   Overcast